Simultaneous Nadir Overpasses (SNOs) Predictions

Prediction of SNOs between NOAA-19 and TERRA Satellite Orbit:

Table of predicted SNOs for the next 14.0 days since TLE Epoch: 6/5/2016
Index Date (NOAA-19) Time (NOAA-19) Lat,Lon (NOAA-19) SZA (NOAA-19 ) Date (TERRA) Time (TERRA) Lat,Lon (TERRA) SZA (TERRA ) Distance(km) Time Diff (sec)
1 06/06/2016 04:34:34 73.76, 118.31 51.13 06/06/2016 04:34:56 73.74, 118.36 51.12 2.71 22
2 06/06/2016 05:25:31 -73.64, -74.14 128.98 06/06/2016 05:24:25 -73.66, -74.18 128.98 2.58 66
3 06/08/2016 10:08:36 -73.75,-145.14 129.09 06/08/2016 10:08:42 -73.72,-145.12 129.12 3.34 6
4 06/08/2016 10:59:26 73.11, 23.63 50.35 06/08/2016 10:58:18 73.17, 21.38 50.30 73.02 68
5 06/10/2016 14:51:45 -74.06, 143.36 128.98 06/10/2016 14:52:56 -73.93, 144.27 129.07 31.51 71
6 06/10/2016 15:42:42 73.74, -48.59 50.73 06/10/2016 15:42:25 73.75, -48.49 50.74 3.28 17
7 06/12/2016 20:25:46 73.79,-119.42 50.63 06/12/2016 20:26:42 73.79,-119.47 50.64 1.64 56
8 06/12/2016 21:16:42 -73.70, 48.07 129.46 06/12/2016 21:16:11 -73.72, 48.01 129.44 3.21 31
9 06/15/2016 01:59:47 -73.82, -22.95 129.45 06/15/2016 02:00:27 -73.80, -22.88 129.46 2.90 40
10 06/15/2016 02:50:49 73.69, 144.60 50.43 06/15/2016 02:49:54 73.72, 144.58 50.45 3.23 55
11 06/17/2016 07:33:54 73.80, 73.62 50.46 06/17/2016 07:34:10 73.79, 73.67 50.45 1.56 16




NCC Satellite Simultaneous Nadir Overpasses (SNOs) Prediction Service
